Terminal Aerodrome Forecast
Issued by NWS Portland, OR

Home | Current Version | Previous Version | Text Only | Print | Product List | Glossary On
Versions: 1 2 3 4 5 6 7 8 9 10 11 12 13 14 15 16 17 18 19 20 21 22 23 24 25 26 27 28 29 30
582
FTUS46 KPQR 271729
TAFEUG
TAF
KEUG 271729Z 2718/2818 36009KT P6SM SKC
     FM272000 01012G20KT P6SM SKC
     FM280400 35008KT P6SM SKC
     FM280800 03004KT P6SM SKC=

USA.gov is the U.S. government's official web portal to all federal, state and local government web resources and services.